Location: Downe
(51.3167°N, 0.0500°E)
Time: 03:41:16
(UTC+00:00)

Cosmos 2082 Rocket - Pass Details

Date: 17 November 2019
Orbit: 833 x 854 km, 71.0° (Epoch: 06 December)

Event Time Altitude Azimuth Distance (km) Brightness Sun altitude
Exits shadow 06:07:23 15° 280° (W) 2,181 3.7 -11.2°
Maximum altitude 06:10:43 23° 323° (NW) 1,734 3.4 -10.7°
Drops below altitude 10° 06:15:14 10° 15° (NNE) 2,490 4.6 -10.1°
Sets 06:18:13 0° 30° (NNE) 3,425 5.5 -9.6°
